FW9015 Weather Reports


time (UTC)temp
C
wind
direction
speed
KPH
gust
KPH
rain 1hr
cm
rain 24hr
cm
rain mn
cm
humidity
%
barometer
mb
20260507214542 11 290 0.0 1.6 0.10 0.10 0.10 100 1010.9
20260507213045 11 0 0.0 1.6 0.10 0.10 0.10 100 1010.9
20260507211613 12 184 0.0 4.8 0.10 0.10 0.10 100 1011.5
20260507210040 12 0 0.0 1.6 0.05 0.05 0.05 100 1010.9
20260507204544 13 0 0.0 1.6 0.00 0.00 0.00 100 1010.5
20260507203048 13 341 3.2 6.4 0.00 0.00 0.00 100 1010.7
20260507201540 13 297 0.0 6.4 0.00 0.00 0.00 100 1010.1
20260507200048 13 37 1.6 6.4 0.00 0.00 0.00 100 1010.3
20260507194542 13 0 0.0 1.6 0.00 0.00 0.00 100 1010.6
20260507193040 14 0 0.0 1.6 0.00 0.00 0.00 100 1010.8
20260507191544 14 0 0.0 3.2 0.00 0.00 0.00 100 1010.5
20260507190046 14 171 0.0 1.6 0.00 0.00 0.00 100 1010.6
20260507184545 14 140 1.6 6.4 0.00 0.00 0.00 100 1010.9
20260507183044 13 67 0.0 8.0 0.00 0.00 0.00 100 1010.7
20260507181539 13 32 1.6 6.4 0.00 0.00 0.00 100 1010.8
20260507180045 13 270 0.0 6.4 0.00 0.00 0.00 100 1011.3
20260507174550 13 74 3.2 8.0 0.00 0.00 0.00 100 1011.5
20260507173049 13 349 3.2 11.3 0.00 0.00 0.00 100 1011.9
20260507171605 13 339 1.6 8.0 0.00 0.00 0.00 100 1011.6
20260507170044 13 33 3.2 8.0 0.00 0.00 0.00 100 1011.8
20260507164600 13 13 1.6 11.3 0.00 0.05 0.00 100 1011.9
20260507163046 13 326 3.2 12.9 0.00 0.05 0.00 100 1012.0
20260507161547 13 340 3.2 12.9 0.00 0.05 0.00 100 1012.1
20260507160042 13 26 4.8 17.7 0.00 0.05 0.00 100 1012.1
20260507154539 13 348 3.2 14.5 0.00 0.08 0.00 100 1012.3
20260507153048 13 28 3.2 11.3 0.00 0.08 0.00 100 1012.3
20260507151544 13 11 4.8 14.5 0.00 0.08 0.00 100 1012.7
20260507150043 13 76 6.4 16.1 0.00 0.08 0.00 100 1012.8
20260507144540 13 27 8.0 20.9 0.00 0.08 0.00 100 1012.8
20260507143049 13 323 4.8 16.1 0.00 0.08 0.00 100 1012.8
20260507141552 13 105 4.8 16.1 0.00 0.08 0.00 100 1012.8
20260507140043 13 15 6.4 19.3 0.00 0.08 0.00 100 1012.5
20260507134548 13 75 3.2 17.7 0.00 0.08 0.00 100 1012.6
20260507133039 13 65 6.4 16.1 0.00 0.08 0.00 100 1012.5
20260507131540 13 342 4.8 19.3 0.00 0.08 0.00 100 1012.7
20260507130041 13 348 3.2 19.3 0.00 0.08 0.00 100 1012.3
20260507124544 13 28 6.4 19.3 0.00 0.08 0.00 100 1012.6
20260507123039 13 298 8.0 19.3 0.00 0.08 0.00 100 1012.6
20260507121540 13 13 4.8 25.7 0.00 0.08 0.00 100 1012.5
20260507120046 13 31 9.7 24.1 0.00 0.08 0.00 100 1012.5
20260507114543 14 304 4.8 20.9 0.00 0.08 0.00 100 1012.5
20260507113040 14 335 4.8 20.9 0.00 0.08 0.00 100 1012.3
20260507111544 14 315 6.4 25.7 0.00 0.08 0.00 100 1012.2
20260507110100 14 24 9.7 19.3 0.00 0.08 0.00 100 1011.6
20260507104547 14 48 8.0 25.7 0.00 0.08 0.00 100 1011.4
20260507103045 15 348 9.7 20.9 0.00 0.08 0.00 100 1011.7
20260507101546 14 316 9.7 24.1 0.00 0.08 0.00 100 1011.6
20260507100040 15 300 6.4 25.7 0.00 0.08 0.00 100 1011.2
20260507094540 15 264 14.5 29.0 0.00 0.08 0.00 100 1011.4
20260507093053 15 315 9.7 24.1 0.00 0.08 0.00 100 1011.3
20260507091602 15 40 6.4 22.5 0.00 0.08 0.00 100 1010.8
20260507090046 15 291 8.0 20.9 0.00 0.08 0.00 100 1010.6
20260507084542 15 310 11.3 29.0 0.00 0.08 0.00 100 1010.6
20260507083040 15 338 11.3 33.8 0.00 0.08 0.00 100 1010.7
20260507081545 16 48 11.3 27.4 0.00 0.08 0.00 100 1010.8
20260507080043 16 19 9.7 24.1 0.00 0.08 0.00 100 1010.7
20260507074545 16 355 9.7 20.9 0.00 0.08 0.00 100 1010.2
20260507073041 18 28 4.8 14.5 0.00 0.08 0.00 100 1009.6
20260507071538 18 26 3.2 8.0 0.00 0.08 0.00 100 1009.1
20260507070053 19 331 4.8 8.0 0.00 0.08 0.00 100 1008.7
20260507064546 20 49 0.0 1.6 0.00 0.08 0.00 100 1008.9
20260507063039 20 0 0.0 1.6 0.00 0.08 0.00 100 1008.9
20260507061540 20 50 0.0 9.7 0.00 0.08 0.00 100 1008.8
20260507054538 20 227 3.2 8.0 0.00 0.08 0.00 100 1009.4
20260507053051 21 207 3.2 12.9 0.00 0.08 0.00 100 1009.5
20260507051542 21 243 3.2 8.0 0.00 0.08 0.00 100 1009.6
20260507050042 21 222 1.6 12.9 0.00 0.08 0.00 100 1009.7
20260507044539 21 246 4.8 14.5 0.00 0.08 0.00 100 1009.8
20260507043038 21 219 3.2 11.3 0.00 0.08 0.00 100 1009.9
20260507041539 20 226 4.8 11.3 0.00 0.08 0.00 100 1009.9
20260507040043 20 271 1.6 12.9 0.00 0.08 0.00 100 1009.7
20260507034552 20 145 1.6 8.0 0.00 0.08 0.08 100 1009.6
20260507033043 20 240 1.6 11.3 0.00 0.08 0.08 100 1009.6
20260507031538 20 219 3.2 9.7 0.00 0.08 0.08 100 1009.5
20260507030040 20 217 1.6 6.4 0.00 0.08 0.08 100 1009.5
20260507024554 20 222 0.0 6.4 0.00 0.08 0.08 100 1009.6
20260507023040 20 229 1.6 4.8 0.00 0.08 0.08 100 1009.9
20260507021546 20 0 1.6 4.8 0.00 0.08 0.08 100 1010.0
20260507020039 20 229 1.6 6.4 0.00 0.08 0.08 100 1010.0
20260507014545 20 159 1.6 4.8 0.00 0.08 0.08 100 1009.9
20260507013038 20 213 0.0 3.2 0.00 0.08 0.08 100 1010.1
20260507011544 20 221 0.0 3.2 0.00 0.08 0.08 100 1010.3
20260507010049 20 222 1.6 3.2 0.00 0.08 0.08 100 1010.2
20260507004538 20 231 0.0 3.2 0.00 0.08 0.08 100 1010.2
20260507003040 20 213 1.6 3.2 0.00 0.08 0.08 100 1010.0
20260507001546 21 190 1.6 1.6 0.00 0.08 0.08 100 1010.1
20260507000043 21 226 1.6 4.8 0.00 0.08 0.08 100 1009.9
20260506234542 21 229 1.6 4.8 0.00 0.08 0.08 100 1010.0
20260506233041 22 149 1.6 4.8 0.00 0.08 0.08 100 1010.0
20260506231539 22 173 1.6 6.4 0.00 0.08 0.08 100 1009.9
20260506230044 22 205 1.6 8.0 0.00 0.08 0.08 100 1010.0
20260506224544 22 213 3.2 14.5 0.00 0.08 0.08 100 1009.7
20260506223043 22 260 4.8 17.7 0.00 0.08 0.08 100 1009.9
20260506221547 22 211 6.4 20.9 0.00 0.08 0.08 100 1010.0
20260506220050 22 232 3.2 6.4 0.00 0.08 0.08 100 1010.1